| time (UTC) | temp F | wind direction | speed MPH | gust MPH | rain 1hr in | rain 24hr in | rain mn in | humidity % | barometer mb |
| 20260507171917 | 82 | 110 | 3.0 | 9.0 | 0.00 | 0.00 | 0.00 | 15 | 1013.9 |
| 20260507171418 | 82 | 110 | 3.0 | 7.0 | 0.00 | 0.00 | 0.00 | 16 | 1014.0 |
| 20260507170917 | 81 | 110 | 2.0 | 5.0 | 0.00 | 0.00 | 0.00 | 17 | 1014.0 |
| 20260507170417 | 81 | 110 | 3.0 | 9.0 | 0.00 | 0.00 | 0.00 | 17 | 1014.1 |
| 20260507165916 | 81 | 110 | 5.0 | 7.0 | 0.00 | 0.00 | 0.00 | 17 | 1014.1 |
| 20260507165417 | 80 | 110 | 3.0 | 7.0 | 0.00 | 0.00 | 0.00 | 18 | 1014.1 |
| 20260507164917 | 80 | 110 | 3.0 | 8.0 | 0.00 | 0.00 | 0.00 | 19 | 1014.2 |
| 20260507164416 | 80 | 110 | 2.0 | 8.0 | 0.00 | 0.00 | 0.00 | 20 | 1014.2 |
| 20260507163917 | 80 | 110 | 3.0 | 9.0 | 0.00 | 0.00 | 0.00 | 19 | 1014.3 |
| 20260507163416 | 79 | 110 | 2.0 | 8.0 | 0.00 | 0.00 | 0.00 | 20 | 1014.2 |
| 20260507162916 | 79 | 110 | 5.0 | 5.0 | 0.00 | 0.00 | 0.00 | 21 | 1014.3 |
| 20260507162417 | 79 | 110 | 4.0 | 5.0 | 0.00 | 0.00 | 0.00 | 20 | 1014.3 |
| 20260507161916 | 78 | 110 | 3.0 | 5.0 | 0.00 | 0.00 | 0.00 | 20 | 1014.3 |
| 20260507161417 | 78 | 110 | 4.0 | 8.0 | 0.00 | 0.00 | 0.00 | 21 | 1014.3 |
| 20260507160917 | 78 | 110 | 4.0 | 7.0 | 0.00 | 0.00 | 0.00 | 22 | 1014.4 |
| 20260507160416 | 77 | 110 | 5.0 | 5.0 | 0.00 | 0.00 | 0.00 | 22 | 1014.5 |
| 20260507155917 | 77 | 110 | 1.0 | 4.0 | 0.00 | 0.00 | 0.00 | 22 | 1014.5 |
| 20260507155417 | 77 | 110 | 3.0 | 8.0 | 0.00 | 0.00 | 0.00 | 22 | 1014.5 |
| 20260507154916 | 76 | 110 | 2.0 | 5.0 | 0.00 | 0.00 | 0.00 | 23 | 1014.5 |
| 20260507154416 | 76 | 110 | 1.0 | 4.0 | 0.00 | 0.00 | 0.00 | 23 | 1014.5 |
| 20260507153916 | 75 | 110 | 1.0 | 3.0 | 0.00 | 0.00 | 0.00 | 24 | 1014.5 |
| 20260507153416 | 75 | 110 | 1.0 | 7.0 | 0.00 | 0.00 | 0.00 | 25 | 1014.5 |
| 20260507152916 | 74 | 110 | 2.0 | 4.0 | 0.00 | 0.00 | 0.00 | 25 | 1014.6 |
| 20260507152417 | 74 | 110 | 2.0 | 5.0 | 0.00 | 0.00 | 0.00 | 27 | 1014.5 |
| 20260507151917 | 73 | 110 | 3.0 | 5.0 | 0.00 | 0.00 | 0.00 | 27 | 1014.5 |
| 20260507151416 | 73 | 110 | 4.0 | 7.0 | 0.00 | 0.00 | 0.00 | 27 | 1014.6 |
| 20260507150917 | 73 | 110 | 3.0 | 5.0 | 0.00 | 0.00 | 0.00 | 28 | 1014.7 |
| 20260507150416 | 72 | 110 | 0.0 | 4.0 | 0.00 | 0.00 | 0.00 | 29 | 1014.6 |
| 20260507145916 | 72 | 110 | 1.0 | 4.0 | 0.00 | 0.00 | 0.00 | 29 | 1014.5 |
| 20260507145416 | 72 | 110 | 2.0 | 4.0 | 0.00 | 0.00 | 0.00 | 29 | 1014.5 |
| 20260507144917 | 71 | 110 | 1.0 | 3.0 | 0.00 | 0.00 | 0.00 | 29 | 1014.5 |
| 20260507144416 | 71 | 110 | 1.0 | 2.0 | 0.00 | 0.00 | 0.00 | 29 | 1014.6 |
| 20260507143917 | 71 | 110 | 1.0 | 3.0 | 0.00 | 0.00 | 0.00 | 29 | 1014.6 |
| 20260507143417 | 70 | 110 | 1.0 | 3.0 | 0.00 | 0.00 | 0.00 | 29 | 1014.5 |
| 20260507142916 | 70 | 110 | 0.0 | 3.0 | 0.00 | 0.00 | 0.00 | 30 | 1014.5 |
| 20260507142417 | 70 | 110 | 1.0 | 1.0 | 0.00 | 0.00 | 0.00 | 31 | 1014.5 |
| 20260507141918 | 69 | 110 | 3.0 | 3.0 | 0.00 | 0.00 | 0.00 | 31 | 1014.6 |
| 20260507141416 | 69 | 110 | 0.0 | 7.0 | 0.00 | 0.00 | 0.00 | 31 | 1014.6 |
| 20260507140916 | 69 | 110 | 3.0 | 5.0 | 0.00 | 0.00 | 0.00 | 31 | 1014.5 |
| 20260507140416 | 69 | 110 | 2.0 | 5.0 | 0.00 | 0.00 | 0.00 | 31 | 1014.5 |
| 20260507135916 | 68 | 110 | 1.0 | 2.0 | 0.00 | 0.00 | 0.00 | 31 | 1014.5 |
| 20260507135416 | 67 | 110 | 0.0 | 1.0 | 0.00 | 0.00 | 0.00 | 34 | 1014.4 |
| 20260507134916 | 66 | 110 | 0.0 | 2.0 | 0.00 | 0.00 | 0.00 | 34 | 1014.2 |
| 20260507134416 | 66 | 110 | 0.0 | 2.0 | 0.00 | 0.00 | 0.00 | 34 | 1014.1 |
| 20260507133916 | 65 | 110 | 1.0 | 4.0 | 0.00 | 0.00 | 0.00 | 36 | 1014.1 |
| 20260507133417 | 64 | 110 | 2.0 | 3.0 | 0.00 | 0.00 | 0.00 | 37 | 1014.1 |
| 20260507132917 | 63 | 110 | 2.0 | 3.0 | 0.00 | 0.00 | 0.00 | 38 | 1014.2 |
| 20260507132416 | 62 | 110 | 0.0 | 1.0 | 0.00 | 0.00 | 0.00 | 39 | 1014.1 |
| 20260507131916 | 62 | 110 | 0.0 | 2.0 | 0.00 | 0.00 | 0.00 | 38 | 1014.0 |
| 20260507131418 | 63 | 110 | 0.0 | 2.0 | 0.00 | 0.00 | 0.00 | 36 | 1014.0 |
| 20260507130917 | 63 | 110 | 1.0 | 2.0 | 0.00 | 0.00 | 0.00 | 36 | 1014.0 |
| 20260507130417 | 63 | 110 | 0.0 | 4.0 | 0.00 | 0.00 | 0.00 | 37 | 1014.0 |
| 20260507125916 | 63 | 110 | 3.0 | 3.0 | 0.00 | 0.00 | 0.00 | 37 | 1014.0 |
| 20260507125416 | 63 | 110 | 0.0 | 5.0 | 0.00 | 0.00 | 0.00 | 37 | 1014.0 |
| 20260507124916 | 62 | 110 | 2.0 | 4.0 | 0.00 | 0.00 | 0.00 | 38 | 1013.9 |
| 20260507124416 | 62 | 110 | 0.0 | 2.0 | 0.00 | 0.00 | 0.00 | 38 | 1013.9 |
| 20260507123916 | 61 | 110 | 1.0 | 3.0 | 0.00 | 0.00 | 0.00 | 39 | 1013.9 |
| 20260507123418 | 61 | 110 | 1.0 | 2.0 | 0.00 | 0.00 | 0.00 | 39 | 1013.8 |
| 20260507122916 | 61 | 110 | 1.0 | 3.0 | 0.00 | 0.00 | 0.00 | 39 | 1013.7 |
| 20260507122417 | 62 | 110 | 0.0 | 2.0 | 0.00 | 0.00 | 0.00 | 38 | 1013.8 |
| 20260507121917 | 62 | 110 | 2.0 | 3.0 | 0.00 | 0.00 | 0.00 | 37 | 1013.7 |
| 20260507121417 | 63 | 110 | 0.0 | 0.0 | 0.00 | 0.00 | 0.00 | 35 | 1013.7 |
| 20260507120917 | 64 | 110 | 0.0 | 2.0 | 0.00 | 0.00 | 0.00 | 35 | 1013.7 |
| 20260507120417 | 65 | 110 | 2.0 | 3.0 | 0.00 | 0.00 | 0.00 | 33 | 1013.7 |
| 20260507115917 | 66 | 110 | 0.0 | 5.0 | 0.00 | 0.00 | 0.00 | 32 | 1013.7 |
| 20260507115416 | 66 | 110 | 4.0 | 5.0 | 0.00 | 0.00 | 0.00 | 32 | 1013.6 |
| 20260507114917 | 66 | 110 | 1.0 | 5.0 | 0.00 | 0.00 | 0.00 | 31 | 1013.7 |
| 20260507114417 | 66 | 110 | 4.0 | 7.0 | 0.00 | 0.00 | 0.00 | 32 | 1013.8 |
| 20260507113916 | 66 | 110 | 3.0 | 5.0 | 0.00 | 0.00 | 0.00 | 32 | 1013.8 |
| 20260507113416 | 66 | 110 | 0.0 | 7.0 | 0.00 | 0.00 | 0.00 | 32 | 1013.7 |
| 20260507112916 | 66 | 110 | 3.0 | 11.0 | 0.00 | 0.00 | 0.00 | 32 | 1013.7 |
| 20260507112417 | 66 | 110 | 5.0 | 9.0 | 0.00 | 0.00 | 0.00 | 32 | 1013.7 |
| 20260507111916 | 66 | 110 | 8.0 | 10.0 | 0.00 | 0.00 | 0.00 | 33 | 1013.7 |
| 20260507111416 | 66 | 110 | 3.0 | 5.0 | 0.00 | 0.00 | 0.00 | 32 | 1013.7 |
| 20260507110916 | 66 | 110 | 3.0 | 8.0 | 0.00 | 0.00 | 0.00 | 32 | 1013.7 |
| 20260507110417 | 66 | 110 | 3.0 | 7.0 | 0.00 | 0.00 | 0.00 | 32 | 1013.7 |
| 20260507105917 | 66 | 110 | 4.0 | 10.0 | 0.00 | 0.00 | 0.00 | 32 | 1013.7 |
| 20260507105416 | 66 | 110 | 5.0 | 9.0 | 0.00 | 0.00 | 0.00 | 33 | 1013.7 |
| 20260507104916 | 65 | 110 | 4.0 | 9.0 | 0.00 | 0.00 | 0.00 | 33 | 1013.7 |
| 20260507104418 | 65 | 110 | 3.0 | 4.0 | 0.00 | 0.00 | 0.00 | 33 | 1013.7 |
| 20260507103916 | 65 | 110 | 3.0 | 4.0 | 0.00 | 0.00 | 0.00 | 33 | 1013.7 |
| 20260507103416 | 65 | 110 | 3.0 | 5.0 | 0.00 | 0.00 | 0.00 | 33 | 1013.8 |
| 20260507102916 | 65 | 110 | 3.0 | 5.0 | 0.00 | 0.00 | 0.00 | 33 | 1013.9 |
| 20260507102417 | 65 | 110 | 3.0 | 0.0 | 0.00 | 0.00 | 0.00 | 33 | 1014.0 |
| 20260507101917 | 65 | 110 | 3.0 | 4.0 | 0.00 | 0.00 | 0.00 | 33 | 1014.0 |
| 20260507101417 | 65 | 110 | 4.0 | 7.0 | 0.00 | 0.00 | 0.00 | 33 | 1014.0 |
| 20260507100916 | 65 | 110 | 4.0 | 7.0 | 0.00 | 0.00 | 0.00 | 33 | 1014.1 |
| 20260507100417 | 65 | 110 | 2.0 | 7.0 | 0.00 | 0.00 | 0.00 | 32 | 1014.2 |
| 20260507095916 | 65 | 110 | 3.0 | 7.0 | 0.00 | 0.00 | 0.00 | 32 | 1014.3 |
| 20260507095417 | 66 | 110 | 4.0 | 9.0 | 0.00 | 0.00 | 0.00 | 32 | 1014.3 |
| 20260507094917 | 66 | 110 | 5.0 | 9.0 | 0.00 | 0.00 | 0.00 | 32 | 1014.4 |
| 20260507094418 | 65 | 110 | 8.0 | 9.0 | 0.00 | 0.00 | 0.00 | 32 | 1014.5 |
| 20260507093917 | 65 | 110 | 3.0 | 8.0 | 0.00 | 0.00 | 0.00 | 32 | 1014.4 |
| 20260507093416 | 65 | 110 | 4.0 | 8.0 | 0.00 | 0.00 | 0.00 | 32 | 1014.5 |
| 20260507092917 | 65 | 110 | 3.0 | 7.0 | 0.00 | 0.00 | 0.00 | 32 | 1014.5 |
| 20260507092416 | 65 | 110 | 3.0 | 9.0 | 0.00 | 0.00 | 0.00 | 32 | 1014.6 |
| 20260507091917 | 65 | 110 | 4.0 | 7.0 | 0.00 | 0.00 | 0.00 | 32 | 1014.6 |
| 20260507091416 | 65 | 110 | 5.0 | 7.0 | 0.00 | 0.00 | 0.00 | 32 | 1014.6 |
| 20260507090916 | 65 | 110 | 2.0 | 8.0 | 0.00 | 0.00 | 0.00 | 32 | 1014.6 |
| 20260507090416 | 64 | 110 | 5.0 | 7.0 | 0.00 | 0.00 | 0.00 | 32 | 1014.6 |
| 20260507085916 | 64 | 110 | 4.0 | 5.0 | 0.00 | 0.00 | 0.00 | 32 | 1014.6 |
| 20260507085417 | 64 | 110 | 3.0 | 5.0 | 0.00 | 0.00 | 0.00 | 32 | 1014.7 |
| 20260507084917 | 65 | 110 | 2.0 | 5.0 | 0.00 | 0.00 | 0.00 | 32 | 1014.7 |
| 20260507084416 | 65 | 110 | 4.0 | 5.0 | 0.00 | 0.00 | 0.00 | 32 | 1014.8 |
| 20260507083916 | 65 | 110 | 3.0 | 4.0 | 0.00 | 0.00 | 0.00 | 31 | 1014.8 |
| 20260507083416 | 65 | 110 | 4.0 | 5.0 | 0.00 | 0.00 | 0.00 | 31 | 1014.9 |
| 20260507082916 | 66 | 110 | 5.0 | 5.0 | 0.00 | 0.00 | 0.00 | 30 | 1014.9 |
| 20260507082416 | 66 | 110 | 4.0 | 5.0 | 0.00 | 0.00 | 0.00 | 30 | 1015.0 |
| 20260507081917 | 67 | 110 | 3.0 | 5.0 | 0.00 | 0.00 | 0.00 | 29 | 1015.0 |
| 20260507081416 | 68 | 110 | 4.0 | 7.0 | 0.00 | 0.00 | 0.00 | 28 | 1015.0 |
| 20260507080916 | 69 | 110 | 4.0 | 8.0 | 0.00 | 0.00 | 0.00 | 28 | 1015.0 |
| 20260507080416 | 69 | 110 | 3.0 | 7.0 | 0.00 | 0.00 | 0.00 | 28 | 1015.1 |
| 20260507075916 | 70 | 110 | 2.0 | 5.0 | 0.00 | 0.00 | 0.00 | 28 | 1015.1 |
| 20260507075416 | 70 | 110 | 3.0 | 5.0 | 0.00 | 0.00 | 0.00 | 27 | 1015.0 |
| 20260507074916 | 70 | 110 | 2.0 | 8.0 | 0.00 | 0.00 | 0.00 | 28 | 1015.1 |
| 20260507074417 | 70 | 110 | 4.0 | 5.0 | 0.00 | 0.00 | 0.00 | 28 | 1015.1 |
| 20260507073917 | 69 | 110 | 2.0 | 4.0 | 0.00 | 0.00 | 0.00 | 29 | 1015.1 |
| 20260507073416 | 67 | 110 | 2.0 | 4.0 | 0.00 | 0.00 | 0.00 | 30 | 1015.1 |
| 20260507072917 | 67 | 110 | 3.0 | 3.0 | 0.00 | 0.00 | 0.00 | 31 | 1015.1 |
| 20260507072416 | 67 | 110 | 1.0 | 3.0 | 0.00 | 0.00 | 0.00 | 30 | 1015.1 |
| 20260507071917 | 68 | 110 | 2.0 | 3.0 | 0.00 | 0.00 | 0.00 | 29 | 1015.1 |
| 20260507071418 | 69 | 110 | 2.0 | 3.0 | 0.00 | 0.00 | 0.00 | 28 | 1015.1 |
| 20260507070916 | 70 | 110 | 0.0 | 3.0 | 0.00 | 0.00 | 0.00 | 27 | 1015.0 |
| 20260507070418 | 70 | 110 | 1.0 | 3.0 | 0.00 | 0.00 | 0.00 | 27 | 1015.1 |
| 20260507065916 | 70 | 110 | 2.0 | 7.0 | 0.00 | 0.00 | 0.00 | 27 | 1015.1 |
| 20260507065417 | 70 | 110 | 2.0 | 7.0 | 0.00 | 0.00 | 0.00 | 27 | 1015.1 |
| 20260507064916 | 69 | 110 | 4.0 | 5.0 | 0.00 | 0.00 | 0.00 | 28 | 1015.0 |
| 20260507064416 | 70 | 110 | 3.0 | 5.0 | 0.00 | 0.00 | 0.00 | 28 | 1015.0 |
| 20260507063916 | 69 | 110 | 3.0 | 7.0 | 0.00 | 0.00 | 0.00 | 29 | 1015.0 |
| 20260507063416 | 69 | 110 | 1.0 | 2.0 | 0.00 | 0.00 | 0.00 | 29 | 1015.0 |
| 20260507062916 | 69 | 110 | 2.0 | 4.0 | 0.00 | 0.00 | 0.00 | 29 | 1015.0 |
| 20260507062416 | 69 | 110 | 2.0 | 4.0 | 0.00 | 0.00 | 0.00 | 29 | 1014.9 |
| 20260507061916 | 67 | 110 | 1.0 | 4.0 | 0.00 | 0.00 | 0.00 | 31 | 1014.8 |
| 20260507061417 | 67 | 110 | 4.0 | 4.0 | 0.00 | 0.00 | 0.00 | 32 | 1015.0 |
| 20260507060916 | 66 | 110 | 2.0 | 3.0 | 0.00 | 0.00 | 0.00 | 33 | 1015.0 |
| 20260507060416 | 66 | 110 | 0.0 | 2.0 | 0.00 | 0.00 | 0.00 | 33 | 1015.0 |
| 20260507055916 | 67 | 110 | 0.0 | 2.0 | 0.00 | 0.00 | 0.00 | 33 | 1015.0 |
| 20260507055418 | 67 | 110 | 0.0 | 0.0 | 0.00 | 0.00 | 0.00 | 32 | 1014.9 |
| 20260507054916 | 68 | 110 | 0.0 | 0.0 | 0.00 | 0.00 | 0.00 | 31 | 1015.0 |
| 20260507054416 | 68 | 110 | 0.0 | 0.0 | 0.00 | 0.00 | 0.00 | 31 | 1015.0 |
| 20260507053916 | 68 | 110 | 0.0 | 1.0 | 0.00 | 0.00 | 0.00 | 30 | 1015.0 |
| 20260507053416 | 68 | 110 | 1.0 | 1.0 | 0.00 | 0.00 | 0.00 | 30 | 1014.9 |
| 20260507052916 | 68 | 110 | 0.0 | 1.0 | 0.00 | 0.00 | 0.00 | 30 | 1014.9 |
| 20260507052417 | 68 | 110 | 0.0 | 2.0 | 0.00 | 0.00 | 0.00 | 31 | 1014.9 |
| 20260507051917 | 67 | 110 | 0.0 | 2.0 | 0.00 | 0.00 | 0.00 | 32 | 1015.0 |
| 20260507051417 | 67 | 110 | 1.0 | 1.0 | 0.00 | 0.00 | 0.00 | 32 | 1014.9 |
| 20260507050917 | 67 | 110 | 0.0 | 0.0 | 0.00 | 0.00 | 0.00 | 33 | 1015.0 |
| 20260507050416 | 68 | 110 | 0.0 | 0.0 | 0.00 | 0.00 | 0.00 | 32 | 1015.0 |
| 20260507045917 | 68 | 110 | 0.0 | 2.0 | 0.00 | 0.00 | 0.00 | 33 | 1014.9 |
| 20260507045416 | 68 | 110 | 1.0 | 2.0 | 0.00 | 0.00 | 0.00 | 32 | 1014.9 |
| 20260507044916 | 69 | 110 | 0.0 | 1.0 | 0.00 | 0.00 | 0.00 | 32 | 1014.9 |
| 20260507044417 | 69 | 110 | 1.0 | 1.0 | 0.00 | 0.00 | 0.00 | 31 | 1014.8 |
| 20260507043916 | 69 | 110 | 0.0 | 2.0 | 0.00 | 0.00 | 0.00 | 31 | 1014.8 |
| 20260507043418 | 69 | 110 | 1.0 | 2.0 | 0.00 | 0.00 | 0.00 | 31 | 1014.7 |
| 20260507042916 | 69 | 110 | 1.0 | 2.0 | 0.00 | 0.00 | 0.00 | 31 | 1014.7 |
| 20260507042416 | 69 | 110 | 2.0 | 2.0 | 0.00 | 0.00 | 0.00 | 31 | 1014.7 |
| 20260507041916 | 70 | 110 | 1.0 | 2.0 | 0.00 | 0.00 | 0.00 | 31 | 1014.6 |
| 20260507041417 | 70 | 110 | 1.0 | 2.0 | 0.00 | 0.00 | 0.00 | 31 | 1014.5 |
| 20260507040916 | 70 | 110 | 1.0 | 1.0 | 0.00 | 0.00 | 0.00 | 31 | 1014.5 |
| 20260507040416 | 70 | 110 | 0.0 | 1.0 | 0.00 | 0.00 | 0.00 | 31 | 1014.4 |
| 20260507035916 | 70 | 110 | 1.0 | 2.0 | 0.00 | 0.00 | 0.00 | 31 | 1014.3 |
| 20260507035416 | 70 | 110 | 1.0 | 1.0 | 0.00 | 0.00 | 0.00 | 30 | 1014.3 |
| 20260507034916 | 70 | 110 | 0.0 | 1.0 | 0.00 | 0.00 | 0.00 | 30 | 1014.2 |
| 20260507034416 | 70 | 110 | 1.0 | 1.0 | 0.00 | 0.00 | 0.00 | 30 | 1014.1 |
| 20260507033916 | 70 | 110 | 0.0 | 1.0 | 0.00 | 0.00 | 0.00 | 30 | 1014.1 |
| 20260507033416 | 71 | 110 | 0.0 | 1.0 | 0.00 | 0.00 | 0.00 | 30 | 1014.0 |
| 20260507032916 | 71 | 110 | 0.0 | 0.0 | 0.00 | 0.00 | 0.00 | 29 | 1014.0 |
| 20260507032416 | 71 | 110 | 0.0 | 0.0 | 0.00 | 0.00 | 0.00 | 28 | 1013.9 |
| 20260507031916 | 72 | 110 | 0.0 | 0.0 | 0.00 | 0.00 | 0.00 | 27 | 1013.8 |
| 20260507031416 | 72 | 110 | 0.0 | 0.0 | 0.00 | 0.00 | 0.00 | 27 | 1013.8 |
| 20260507030916 | 72 | 110 | 0.0 | 0.0 | 0.00 | 0.00 | 0.00 | 27 | 1013.7 |
| 20260507030416 | 72 | 110 | 0.0 | 1.0 | 0.00 | 0.00 | 0.00 | 26 | 1013.7 |
| 20260507025916 | 73 | 110 | 0.0 | 1.0 | 0.00 | 0.00 | 0.00 | 26 | 1013.6 |
| 20260507025416 | 74 | 110 | 1.0 | 2.0 | 0.00 | 0.00 | 0.00 | 24 | 1013.5 |
| 20260507024916 | 74 | 110 | 0.0 | 2.0 | 0.00 | 0.00 | 0.00 | 24 | 1013.5 |
| 20260507024416 | 75 | 110 | 0.0 | 0.0 | 0.00 | 0.00 | 0.00 | 24 | 1013.4 |
| 20260507023916 | 75 | 110 | 0.0 | 2.0 | 0.00 | 0.00 | 0.00 | 23 | 1013.4 |
| 20260507023418 | 76 | 110 | 0.0 | 2.0 | 0.00 | 0.00 | 0.00 | 22 | 1013.4 |
| 20260507022916 | 77 | 110 | 2.0 | 3.0 | 0.00 | 0.00 | 0.00 | 22 | 1013.3 |
| 20260507022418 | 77 | 110 | 3.0 | 4.0 | 0.00 | 0.00 | 0.00 | 21 | 1013.2 |
| 20260507021916 | 78 | 110 | 2.0 | 4.0 | 0.00 | 0.00 | 0.00 | 21 | 1013.2 |
| 20260507021416 | 78 | 110 | 4.0 | 5.0 | 0.00 | 0.00 | 0.00 | 21 | 1013.1 |
| 20260507020916 | 78 | 110 | 2.0 | 9.0 | 0.00 | 0.00 | 0.00 | 21 | 1013.1 |
| 20260507020417 | 78 | 110 | 1.0 | 3.0 | 0.00 | 0.00 | 0.00 | 21 | 1013.1 |
| 20260507015916 | 79 | 110 | 3.0 | 5.0 | 0.00 | 0.00 | 0.00 | 20 | 1013.1 |
| 20260507015416 | 79 | 110 | 2.0 | 8.0 | 0.00 | 0.00 | 0.00 | 20 | 1013.0 |
| 20260507014917 | 79 | 110 | 2.0 | 8.0 | 0.00 | 0.00 | 0.00 | 20 | 1013.0 |
| 20260507014417 | 79 | 110 | 5.0 | 7.0 | 0.00 | 0.00 | 0.00 | 20 | 1013.0 |
| 20260507013916 | 79 | 110 | 4.0 | 9.0 | 0.00 | 0.00 | 0.00 | 20 | 1013.0 |
| 20260507013416 | 80 | 110 | 4.0 | 9.0 | 0.00 | 0.00 | 0.00 | 19 | 1013.0 |
| 20260507012916 | 80 | 110 | 4.0 | 9.0 | 0.00 | 0.00 | 0.00 | 19 | 1013.0 |
| 20260507012417 | 80 | 110 | 5.0 | 10.0 | 0.00 | 0.00 | 0.00 | 19 | 1013.0 |
| 20260507011917 | 80 | 110 | 4.0 | 9.0 | 0.00 | 0.00 | 0.00 | 19 | 1013.0 |
| 20260507011417 | 80 | 110 | 2.0 | 10.0 | 0.00 | 0.00 | 0.00 | 19 | 1013.0 |
| 20260507010922 | 80 | 110 | 5.0 | 9.0 | 0.00 | 0.00 | 0.00 | 19 | 1013.0 |
| 20260507010418 | 81 | 110 | 8.0 | 11.0 | 0.00 | 0.00 | 0.00 | 19 | 1013.0 |
| 20260507005916 | 80 | 110 | 1.0 | 11.0 | 0.00 | 0.00 | 0.00 | 19 | 1013.0 |
| 20260507005416 | 81 | 110 | 9.0 | 11.0 | 0.00 | 0.00 | 0.00 | 19 | 1012.9 |
| 20260507004916 | 81 | 110 | 1.0 | 5.0 | 0.00 | 0.00 | 0.00 | 19 | 1012.9 |
| 20260507004417 | 81 | 110 | 2.0 | 8.0 | 0.00 | 0.00 | 0.00 | 19 | 1012.9 |
| 20260507003916 | 81 | 110 | 5.0 | 7.0 | 0.00 | 0.00 | 0.00 | 19 | 1012.9 |
| 20260507003416 | 81 | 110 | 5.0 | 11.0 | 0.00 | 0.00 | 0.00 | 19 | 1012.9 |
| 20260507002916 | 81 | 110 | 7.0 | 11.0 | 0.00 | 0.00 | 0.00 | 19 | 1012.8 |
| 20260507002417 | 81 | 110 | 4.0 | 10.0 | 0.00 | 0.00 | 0.00 | 19 | 1012.9 |
| 20260507001917 | 81 | 110 | 5.0 | 11.0 | 0.00 | 0.00 | 0.00 | 19 | 1012.8 |
| 20260507001416 | 81 | 110 | 4.0 | 10.0 | 0.00 | 0.00 | 0.00 | 19 | 1012.8 |
| 20260507000916 | 81 | 110 | 3.0 | 11.0 | 0.00 | 0.00 | 0.00 | 19 | 1012.9 |
| 20260507000416 | 81 | 110 | 5.0 | 10.0 | 0.00 | 0.00 | 0.00 | 19 | 1012.8 |
| 20260506235916 | 82 | 110 | 7.0 | 9.0 | 0.00 | 0.00 | 0.00 | 19 | 1012.9 |
| 20260506235416 | 81 | 110 | 5.0 | 10.0 | 0.00 | 0.00 | 0.00 | 19 | 1012.8 |
| 20260506234917 | 81 | 110 | 7.0 | 11.0 | 0.00 | 0.00 | 0.00 | 19 | 1012.9 |
| 20260506234416 | 81 | 110 | 3.0 | 10.0 | 0.00 | 0.00 | 0.00 | 19 | 1013.0 |
| 20260506233917 | 81 | 110 | 1.0 | 12.0 | 0.00 | 0.00 | 0.00 | 18 | 1013.0 |
| 20260506233416 | 82 | 110 | 8.0 | 16.0 | 0.00 | 0.00 | 0.00 | 18 | 1013.0 |
| 20260506232916 | 82 | 110 | 10.0 | 13.0 | 0.00 | 0.00 | 0.00 | 19 | 1013.0 |
| 20260506232416 | 81 | 110 | 2.0 | 11.0 | 0.00 | 0.00 | 0.00 | 19 | 1013.0 |
| 20260506231916 | 82 | 110 | 0.0 | 9.0 | 0.00 | 0.00 | 0.00 | 19 | 1013.1 |
| 20260506231417 | 82 | 110 | 5.0 | 9.0 | 0.00 | 0.00 | 0.00 | 19 | 1013.1 |
| 20260506230916 | 82 | 110 | 3.0 | 13.0 | 0.00 | 0.00 | 0.00 | 19 | 1013.2 |
| 20260506230416 | 81 | 110 | 2.0 | 11.0 | 0.00 | 0.00 | 0.00 | 19 | 1013.1 |
| 20260506225916 | 81 | 110 | 4.0 | 11.0 | 0.00 | 0.00 | 0.00 | 19 | 1013.1 |
| 20260506225417 | 82 | 110 | 10.0 | 11.0 | 0.00 | 0.00 | 0.00 | 19 | 1013.2 |
| 20260506224918 | 81 | 110 | 4.0 | 13.0 | 0.00 | 0.00 | 0.00 | 19 | 1013.3 |
| 20260506224416 | 81 | 110 | 8.0 | 15.0 | 0.00 | 0.00 | 0.00 | 19 | 1013.3 |
| 20260506223917 | 81 | 110 | 3.0 | 9.0 | 0.00 | 0.00 | 0.00 | 19 | 1013.4 |
| 20260506223416 | 82 | 110 | 4.0 | 10.0 | 0.00 | 0.00 | 0.00 | 19 | 1013.4 |
| 20260506222917 | 80 | 110 | 5.0 | 11.0 | 0.00 | 0.00 | 0.00 | 19 | 1013.5 |
| 20260506222416 | 80 | 110 | 11.0 | 14.0 | 0.00 | 0.00 | 0.00 | 19 | 1013.5 |
| 20260506221916 | 81 | 110 | 8.0 | 13.0 | 0.00 | 0.00 | 0.00 | 18 | 1013.6 |
| 20260506221416 | 81 | 110 | 7.0 | 13.0 | 0.00 | 0.00 | 0.00 | 19 | 1013.7 |
| 20260506220916 | 81 | 110 | 3.0 | 11.0 | 0.00 | 0.00 | 0.00 | 19 | 1013.8 |
| 20260506220416 | 81 | 110 | 2.0 | 8.0 | 0.00 | 0.00 | 0.00 | 19 | 1013.8 |
| 20260506215916 | 80 | 110 | 2.0 | 13.0 | 0.00 | 0.00 | 0.00 | 20 | 1013.9 |
| 20260506215416 | 80 | 110 | 3.0 | 9.0 | 0.00 | 0.00 | 0.00 | 20 | 1013.9 |
| 20260506214916 | 81 | 110 | 8.0 | 14.0 | 0.00 | 0.00 | 0.00 | 19 | 1014.0 |
| 20260506214417 | 81 | 110 | 11.0 | 14.0 | 0.00 | 0.00 | 0.00 | 19 | 1014.0 |
| 20260506213916 | 80 | 110 | 2.0 | 10.0 | 0.00 | 0.00 | 0.00 | 20 | 1014.1 |
| 20260506213416 | 81 | 110 | 7.0 | 12.0 | 0.00 | 0.00 | 0.00 | 19 | 1014.3 |
| 20260506212916 | 81 | 110 | 9.0 | 14.0 | 0.00 | 0.00 | 0.00 | 20 | 1014.3 |
| 20260506212416 | 80 | 110 | 7.0 | 11.0 | 0.00 | 0.00 | 0.00 | 20 | 1014.3 |
| 20260506211916 | 80 | 110 | 7.0 | 11.0 | 0.00 | 0.00 | 0.00 | 20 | 1014.4 |
| 20260506211416 | 79 | 110 | 10.0 | 12.0 | 0.00 | 0.00 | 0.00 | 21 | 1014.4 |
| 20260506210916 | 79 | 110 | 10.0 | 12.0 | 0.00 | 0.00 | 0.00 | 21 | 1014.5 |
| 20260506210416 | 79 | 110 | 1.0 | 8.0 | 0.00 | 0.00 | 0.00 | 20 | 1014.5 |
| 20260506205916 | 81 | 110 | 4.0 | 12.0 | 0.00 | 0.00 | 0.00 | 20 | 1014.7 |
| 20260506205416 | 81 | 110 | 5.0 | 11.0 | 0.00 | 0.00 | 0.00 | 19 | 1014.8 |
| 20260506204916 | 80 | 110 | 1.0 | 10.0 | 0.00 | 0.00 | 0.00 | 20 | 1014.8 |
| 20260506204416 | 79 | 110 | 5.0 | 10.0 | 0.00 | 0.00 | 0.00 | 21 | 1014.9 |
| 20260506203916 | 79 | 110 | 7.0 | 9.0 | 0.00 | 0.00 | 0.00 | 21 | 1015.0 |
| 20260506203416 | 80 | 110 | 4.0 | 12.0 | 0.00 | 0.00 | 0.00 | 21 | 1015.0 |
| 20260506202918 | 80 | 110 | 9.0 | 14.0 | 0.00 | 0.00 | 0.00 | 21 | 1015.0 |
| 20260506202416 | 78 | 110 | 3.0 | 5.0 | 0.00 | 0.00 | 0.00 | 23 | 1015.1 |
| 20260506201916 | 77 | 110 | 5.0 | 7.0 | 0.00 | 0.00 | 0.00 | 21 | 1015.1 |
| 20260506201416 | 79 | 110 | 0.0 | 9.0 | 0.00 | 0.00 | 0.00 | 21 | 1015.2 |
| 20260506200916 | 80 | 110 | 3.0 | 13.0 | 0.00 | 0.00 | 0.00 | 21 | 1015.2 |
| 20260506200416 | 77 | 110 | 5.0 | 7.0 | 0.00 | 0.00 | 0.00 | 24 | 1015.2 |
| 20260506195917 | 77 | 110 | 0.0 | 7.0 | 0.00 | 0.00 | 0.00 | 23 | 1015.3 |
| 20260506195417 | 77 | 110 | 1.0 | 12.0 | 0.00 | 0.00 | 0.00 | 23 | 1015.4 |
| 20260506194916 | 79 | 110 | 4.0 | 13.0 | 0.00 | 0.00 | 0.00 | 22 | 1015.3 |
| 20260506194417 | 77 | 110 | 10.0 | 12.0 | 0.00 | 0.00 | 0.00 | 23 | 1015.3 |
| 20260506193917 | 77 | 110 | 11.0 | 13.0 | 0.00 | 0.00 | 0.00 | 23 | 1015.4 |
| 20260506193416 | 76 | 110 | 7.0 | 16.0 | 0.00 | 0.00 | 0.00 | 24 | 1015.4 |
| 20260506192916 | 77 | 110 | 11.0 | 13.0 | 0.00 | 0.00 | 0.00 | 25 | 1015.4 |
| 20260506192416 | 76 | 110 | 2.0 | 7.0 | 0.00 | 0.00 | 0.00 | 24 | 1015.5 |
| 20260506191916 | 76 | 110 | 2.0 | 11.0 | 0.00 | 0.00 | 0.00 | 24 | 1015.6 |
| 20260506191416 | 77 | 110 | 8.0 | 14.0 | 0.00 | 0.00 | 0.00 | 24 | 1015.7 |
| 20260506190916 | 78 | 110 | 7.0 | 14.0 | 0.00 | 0.00 | 0.00 | 24 | 1015.7 |
| 20260506190417 | 76 | 110 | 5.0 | 9.0 | 0.00 | 0.00 | 0.00 | 26 | 1015.7 |
| 20260506185916 | 75 | 110 | 4.0 | 11.0 | 0.00 | 0.00 | 0.00 | 26 | 1015.8 |
| 20260506185416 | 76 | 110 | 2.0 | 8.0 | 0.00 | 0.00 | 0.00 | 25 | 1015.9 |
| 20260506184916 | 76 | 110 | 8.0 | 10.0 | 0.00 | 0.00 | 0.00 | 26 | 1015.9 |
| 20260506184416 | 75 | 110 | 5.0 | 14.0 | 0.00 | 0.00 | 0.00 | 26 | 1016.0 |
| 20260506183917 | 75 | 110 | 4.0 | 7.0 | 0.00 | 0.00 | 0.00 | 27 | 1016.1 |
| 20260506183416 | 76 | 110 | 5.0 | 10.0 | 0.00 | 0.00 | 0.00 | 26 | 1016.2 |
| 20260506182916 | 74 | 110 | 4.0 | 4.0 | 0.00 | 0.00 | 0.00 | 27 | 1016.2 |
| 20260506182416 | 75 | 110 | 3.0 | 12.0 | 0.00 | 0.00 | 0.00 | 26 | 1016.3 |
| 20260506181916 | 75 | 110 | 10.0 | 12.0 | 0.00 | 0.00 | 0.00 | 26 | 1016.3 |
| 20260506181416 | 75 | 110 | 7.0 | 12.0 | 0.00 | 0.00 | 0.00 | 27 | 1016.3 |
| 20260506180917 | 74 | 110 | 4.0 | 9.0 | 0.00 | 0.00 | 0.00 | 28 | 1016.4 |
| 20260506180416 | 73 | 110 | 0.0 | 10.0 | 0.00 | 0.00 | 0.00 | 28 | 1016.4 |
| 20260506175916 | 72 | 110 | 3.0 | 5.0 | 0.00 | 0.00 | 0.00 | 28 | 1016.4 |
| 20260506175417 | 74 | 110 | 4.0 | 8.0 | 0.00 | 0.00 | 0.00 | 27 | 1016.5 |
| 20260506174917 | 72 | 110 | 2.0 | 7.0 | 0.00 | 0.00 | 0.00 | 29 | 1016.5 |
| 20260506174416 | 73 | 110 | 1.0 | 11.0 | 0.00 | 0.00 | 0.00 | 27 | 1016.6 |
| 20260506173916 | 73 | 110 | 7.0 | 8.0 | 0.00 | 0.00 | 0.00 | 29 | 1016.5 |
| 20260506173416 | 72 | 110 | 3.0 | 11.0 | 0.00 | 0.00 | 0.00 | 30 | 1016.4 |
| 20260506172916 | 72 | 110 | 2.0 | 10.0 | 0.00 | 0.00 | 0.00 | 30 | 1016.4 |
| 20260506172416 | 71 | 110 | 5.0 | 8.0 | 0.00 | 0.00 | 0.00 | 30 | 1016.4 |